This is the latest recevied weather packets stored in our database for station/object N6ZHV-13. If no packets are shown the sender has not sent any weather packets the latest 10 day(s).
| Time | Temp. | Humidity | Pressure | Rain* | Wind** | Luminosity | Snow |
|---|---|---|---|---|---|---|---|
| 1788448624 | 20° C | 78% | 1010.6 hPa | 0 mm | - | - | - |
| 1788448324 | 20° C | 77% | 1010.7 hPa | 0 mm | - | - | - |
| 1788448024 | 19.44° C | 77% | 1010.5 hPa | 0 mm | - | - | - |
| 1788447724 | 18.89° C | 77% | 1010.6 hPa | 0 mm | - | - | - |
| 1788447424 | 18.89° C | 77% | 1010.8 hPa | 0 mm | - | - | - |
| 1788447124 | 18.89° C | 77% | 1010.8 hPa | 0 mm | - | - | - |
| 1788446824 | 18.33° C | 77% | 1010.7 hPa | 0 mm | - | - | - |
| 1788446524 | 18.33° C | 77% | 1010.7 hPa | 0 mm | - | - | - |
| 1788446224 | 17.78° C | 80% | 1010.7 hPa | 0 mm | - | - | - |
| 1788445924 | 17.78° C | 81% | 1010.6 hPa | 0 mm | - | - | - |
| 1788445624 | 17.22° C | 82% | 1010.5 hPa | 0 mm | - | - | - |
| 1788445324 | 17.22° C | 83% | 1010.3 hPa | 0 mm | - | - | - |
| 1788445024 | 16.67° C | 84% | 1010.2 hPa | 0 mm | - | - | - |
| 1788444724 | 16.11° C | 85% | 1010.2 hPa | 0 mm | - | - | - |
| 1788444424 | 16.11° C | 86% | 1010.2 hPa | 0 mm | - | - | - |
| 1788444124 | 15.56° C | 88% | 1009.9 hPa | 0 mm | - | - | - |
| 1788443824 | 15.56° C | 88% | 1009.8 hPa | 0 mm | - | - | - |
| 1788443524 | 15.56° C | 89% | 1009.6 hPa | 0 mm | - | - | - |
| 1788443224 | 15.56° C | 89% | 1009.7 hPa | 0 mm | - | - | - |
| 1788442924 | 15.56° C | 89% | 1009.8 hPa | 0 mm | - | - | - |
| 1788442624 | 15.56° C | 89% | 1009.8 hPa | 0 mm | - | - | - |
| 1788442324 | 15.56° C | 88% | 1009.4 hPa | 0 mm | - | - | - |
| 1788442024 | 15.56° C | 88% | 1009.8 hPa | 0 mm | - | - | - |
| 1788441724 | 15° C | 88% | 1009.7 hPa | 0 mm | - | - | - |
| 1788441424 | 15.56° C | 88% | 1009.8 hPa | 0 mm | - | - | - |
* Rain latest hour (hover to see other rain measurements)
** Current wind speed in m/s (hover to see current wind gust speed)